Santa Ynez, CA

7:14 AM PST on January 21, 2018 (GMT -0800)
Santa Ynez

Weather History for KIZA - November, 2012

Change the Weather History Date:

Monday, November 12, 2012

  Actual Average (KSBA) Record (KSBA)
Temperature  
Mean Temperature 52 °F -  
Max Temperature 71 °F 70 °F 84 °F (1986)
Min Temperature 32 °F 45 °F 32 °F (2000)
Degree Days  
Heating Degree Days 14    
Growing Degree Days 2 (Base 50)    
Moisture  
Dew Point 29 °F    
Average Humidity 54    
Maximum Humidity 87    
Minimum Humidity 14    
Precipitation  
Precipitation 0.00 in - - ()
Sea Level Pressure  
Sea Level Pressure 30.22 in    
Wind  
Wind Speed 3 mph (NW)    
Max Wind Speed 13 mph    
Max Gust Speed -    
Visibility 10 miles    
Events      
Averages and records for this station are not official NWS values.
T = Trace of Precipitation, MM = Missing Value Source: NWS Daily Summary

Daily Weather History Graph

Daily Weather History Graph

Search for Another Location

Airport or City:

Trip Planner

Search our weather history database for the weather conditions in past years. The results will help you decide how hot, cold, wet, or windy it might be!

Date:

Astronomy

Nov. 12, 2012 Rise Set
Actual Time 6:31 AM PST 4:57 PM PST
Civil Twilight 6:05 AM PST 5:23 PM PST
Nautical Twilight 5:34 AM PST 5:53 PM PST
Astronomical Twilight 5:04 AM PST 6:23 PM PST
Moon 5:05 AM PST (11/12) 4:05 PM PST (11/12)
Length of Visible Light 11h 18m
Length of Day
10h 25m
Waning Crescent, 2% of the Moon is Illuminated
Nov 12
Waning Crescent
Nov 13
New
Nov 20
First Quarter
Nov 28
Full
Dec 6
Last Quarter

Hourly Weather History & Observations

Time (PST) Temp. Windchill Dew Point Humidity Pressure Visibility Wind Dir Wind Speed Gust Speed Precip Events Conditions
12:15 AM 37.4 °F 33.8 °F 30.2 °F 75% 30.31 in 10.0 mi East 4.6 mph - N/A   Clear
12:35 AM 35.6 °F 32.8 °F 30.2 °F 81% 30.31 in 10.0 mi NE 3.5 mph - N/A   Clear
12:55 AM 33.8 °F - 28.4 °F 81% 30.31 in 10.0 mi Calm Calm - N/A   Clear
1:15 AM 35.6 °F - 28.4 °F 75% 30.32 in 10.0 mi Calm Calm - N/A   Clear
1:35 AM 35.6 °F - 28.4 °F 75% 30.33 in 10.0 mi Calm Calm - N/A   Clear
1:55 AM 33.8 °F 29.6 °F 28.4 °F 81% 30.32 in 10.0 mi NNE 4.6 mph - N/A   Clear
2:15 AM 33.8 °F - 26.6 °F 75% 30.32 in 10.0 mi Calm Calm - N/A   Clear
2:35 AM 33.8 °F - 26.6 °F 75% 30.31 in 10.0 mi Calm Calm - N/A   Clear
2:55 AM 33.8 °F 30.8 °F 26.6 °F 75% 30.30 in 10.0 mi ESE 3.5 mph - N/A   Clear
3:15 AM 32.0 °F - 28.4 °F 87% 30.29 in 10.0 mi Calm Calm - N/A   Clear
3:35 AM 33.8 °F - 26.6 °F 75% 30.29 in 10.0 mi Calm Calm - N/A   Clear
3:55 AM 32.0 °F - 26.6 °F 80% 30.28 in 10.0 mi Calm Calm - N/A   Clear
4:15 AM 32.0 °F 28.7 °F 26.6 °F 80% 30.28 in 10.0 mi NNE 3.5 mph - N/A   Clear
4:35 AM 32.0 °F 28.7 °F 26.6 °F 80% 30.28 in 10.0 mi NE 3.5 mph - N/A   Clear
4:55 AM 33.8 °F - 26.6 °F 75% 30.28 in 10.0 mi Calm Calm - N/A   Clear
5:15 AM 33.8 °F 30.8 °F 24.8 °F 70% 30.28 in 10.0 mi NE 3.5 mph - N/A   Clear
5:35 AM 32.0 °F 28.7 °F 24.8 °F 75% 30.28 in 10.0 mi NE 3.5 mph - N/A   Clear
5:55 AM 32.0 °F - 26.6 °F 80% 30.28 in 10.0 mi Calm Calm - N/A   Clear
6:15 AM 32.0 °F - 24.8 °F 75% 30.28 in 10.0 mi Calm Calm - N/A   Clear
6:35 AM 32.0 °F - 26.6 °F 80% 30.28 in 10.0 mi Calm Calm - N/A   Clear
6:55 AM 33.8 °F - 24.8 °F 70% 30.29 in 10.0 mi Calm Calm - N/A   Clear
7:15 AM 32.0 °F - 26.6 °F 80% 30.29 in 10.0 mi Calm Calm - N/A   Clear
7:35 AM 35.6 °F - 26.6 °F 70% 30.28 in 10.0 mi Calm Calm - N/A   Clear
7:55 AM 37.4 °F - 26.6 °F 65% 30.28 in 10.0 mi Calm Calm - N/A   Clear
8:15 AM 41.0 °F - 26.6 °F 57% 30.28 in 10.0 mi Calm Calm - N/A   Clear
8:35 AM 42.8 °F - 28.4 °F 57% 30.28 in 10.0 mi Calm Calm - N/A   Clear
8:55 AM 44.6 °F - 28.4 °F 53% 30.27 in 10.0 mi Calm Calm - N/A   Clear
9:15 AM 50.0 °F - 26.6 °F 40% 30.27 in 10.0 mi Calm Calm - N/A   Clear
9:35 AM 51.8 °F - 26.6 °F 38% 30.27 in 10.0 mi Calm Calm - N/A   Clear
9:55 AM 53.6 °F - 26.6 °F 35% 30.26 in 10.0 mi Calm Calm - N/A   Clear
10:15 AM 57.2 °F - 24.8 °F 29% 30.25 in 10.0 mi SSW 3.5 mph - N/A   Clear
10:35 AM 60.8 °F - 24.8 °F 25% 30.23 in 10.0 mi Calm Calm - N/A   Clear
10:55 AM 62.6 °F - 23.0 °F 22% 30.22 in 10.0 mi Calm Calm - N/A   Clear
11:15 AM 64.4 °F - 24.8 °F 22% 30.22 in 10.0 mi WNW 5.8 mph - N/A   Clear
11:35 AM 68.0 °F - 19.4 °F 16% 30.20 in 10.0 mi NW 4.6 mph - N/A   Clear
11:55 AM 68.0 °F - 17.6 °F 15% 30.19 in 10.0 mi West 3.5 mph - N/A   Clear
12:15 PM 69.8 °F - 17.6 °F 14% 30.18 in 10.0 mi NNW 4.6 mph - N/A   Clear
12:35 PM 69.8 °F - 19.4 °F 15% 30.17 in 10.0 mi West 5.8 mph - N/A   Clear
12:55 PM 69.8 °F - 21.2 °F 16% 30.16 in 10.0 mi WSW 4.6 mph - N/A   Clear
1:15 PM 71.6 °F - 23.0 °F 16% 30.15 in 10.0 mi West 9.2 mph - N/A   Clear
1:35 PM 71.6 °F - 23.0 °F 16% 30.15 in 10.0 mi WNW 9.2 mph - N/A   Clear
1:55 PM 71.6 °F - 24.8 °F 17% 30.15 in 10.0 mi West 9.2 mph - N/A   Clear
2:15 PM 69.8 °F - 28.4 °F 21% 30.15 in 10.0 mi West 11.5 mph - N/A   Clear
2:35 PM 69.8 °F - 30.2 °F 23% 30.14 in 10.0 mi West 12.7 mph - N/A   Clear
2:55 PM 69.8 °F - 32.0 °F 25% 30.14 in 10.0 mi West 12.7 mph - N/A   Clear
3:15 PM 68.0 °F - 32.0 °F 26% 30.14 in 10.0 mi West 10.4 mph - N/A   Clear
3:35 PM 68.0 °F - 30.2 °F 24% 30.13 in 10.0 mi WNW 10.4 mph - N/A   Clear
3:55 PM 66.2 °F - 32.0 °F 28% 30.14 in 10.0 mi WNW 10.4 mph - N/A   Clear
4:15 PM 64.4 °F - 33.8 °F 32% 30.14 in 10.0 mi West 10.4 mph - N/A   Clear
4:35 PM 62.6 °F - 33.8 °F 34% 30.14 in 10.0 mi WNW 8.1 mph - N/A   Clear
4:55 PM 59.0 °F - 35.6 °F 42% 30.14 in 10.0 mi West 5.8 mph - N/A   Clear
5:15 PM 57.2 °F - 35.6 °F 44% 30.15 in 10.0 mi Calm Calm - N/A   Clear
5:35 PM 57.2 °F - 37.4 °F 48% 30.15 in 10.0 mi Calm Calm - N/A   Clear
5:55 PM 53.6 °F - 37.4 °F 54% 30.16 in 10.0 mi WSW 3.5 mph - N/A   Clear
6:15 PM 51.8 °F - 37.4 °F 58% 30.16 in 10.0 mi WSW 3.5 mph - N/A   Clear
6:35 PM 51.8 °F - 41.0 °F 67% 30.17 in 10.0 mi West 4.6 mph - N/A   Clear
6:55 PM 51.8 °F - 41.0 °F 67% 30.17 in 10.0 mi Calm Calm - N/A   Clear
7:15 PM 50.0 °F - 37.4 °F 62% 30.18 in 10.0 mi East 3.5 mph - N/A   Clear
7:35 PM 50.0 °F - 35.6 °F 58% 30.18 in 10.0 mi ESE 3.5 mph - N/A   Clear
7:55 PM 48.2 °F - 33.8 °F 58% 30.19 in 10.0 mi ENE 4.6 mph - N/A   Clear
8:15 PM 46.4 °F 45.2 °F 33.8 °F 62% 30.19 in 10.0 mi ENE 3.5 mph - N/A   Clear
8:35 PM 46.4 °F 45.2 °F 33.8 °F 62% 30.20 in 10.0 mi NE 3.5 mph - N/A   Clear
8:55 PM 44.6 °F 41.4 °F 32.0 °F 61% 30.20 in 10.0 mi East 5.8 mph - N/A   Clear
9:15 PM 44.6 °F - 33.8 °F 66% 30.20 in 10.0 mi Calm Calm - N/A   Clear
9:35 PM 44.6 °F - 33.8 °F 66% 30.20 in 10.0 mi Calm Calm - N/A   Clear
9:55 PM 42.8 °F 41.1 °F 32.0 °F 66% 30.20 in 10.0 mi NNE 3.5 mph - N/A   Clear
10:15 PM 42.8 °F - 32.0 °F 66% 30.19 in 10.0 mi Calm Calm - N/A   Clear
10:35 PM 42.8 °F - 32.0 °F 66% 30.19 in 10.0 mi Calm Calm - N/A   Clear
10:55 PM 41.0 °F - 32.0 °F 70% 30.18 in 10.0 mi Calm Calm - N/A   Clear
11:15 PM 41.0 °F 39.0 °F 32.0 °F 70% 30.17 in 10.0 mi ENE 3.5 mph - N/A   Clear
11:35 PM 41.0 °F - 32.0 °F 70% 30.15 in 10.0 mi Calm Calm - N/A   Clear
11:55 PM 39.2 °F - 30.2 °F 70% 30.15 in 10.0 mi Calm Calm - N/A   Clear